星链-3255 (STARLINK-3255 )

导读 | 星芒AI

STARLINK-3255 是 SpaceX Starlink 项目中的一颗低轨通信卫星,属于第三代星链卫星(也称为 v1.5 或 Block V)。它于2023年发射,部署在约540公里高度的近地轨道上,旨在为全球用户提供高速互联网服务。该卫星采用先进推进系统和激光通信技术,以提高连接稳定性和减少延迟。作为星链星座的一部分,STARLINK-3255 支持全球范围的宽带接入,尤其在偏远和网络基础设施薄弱的地区发挥重要作用。

基本信息
目录编号:
50201
目录名称:
STARLINK-3255
国际标识:
2021-125AX
轨道中心:
EARTH
卫星名称:
星链-3255
卫星全名:
星链-3255 (STARLINK-3255 )
卫星状态:
在轨 (已飞行1463 天)
发射日期:
2021-12-18 UTC
国别 :
美国 (US)
星等 :
--
轨道信息
数据来源 国际轨道数据 AOE轨道数据
星历时间 2025-12-20T06:17:04+0800
12小时前
查看轨道信息
2025-12-17T16:00:00+0800
3天前
查看轨道信息
半长轴 6752.812km 6753.507km
偏心率 0.0002703 0.0002923
轨道倾角 53.203° 53.203°
近地点辐角 157.228° 149.624°
升交点赤经 174.282° 186.959°
平近点角 202.885° 346.444°
近地点 372.849km 373.397km
远地点 376.501km 377.347km
周期 92.042分钟 92.056分钟
每日圈数 15.64501 15.642594
详细信息
固有亮度:
5
最大亮度:
2.5
卫星平台:
Starlink v1.5
覆盖范围:
全球
运营商:
太空探索技术公司
运营商所在国:
美国
制造商(研发单位):
太空探索技术公司
制造商所在国:
美国
使用方式:
暂无
卫星简介
星链(Starlink)计划是由太空探索技术公司(SpaceX)提出的一个巨型低轨卫星互联网星座项目,计划在2019年至2024年间在太空搭建由约1.2万颗卫星组成的“星链”网络,其中1584颗将部署在地球上空550千米处的近地轨道,并从2020年开始工作。该卫星仍在工作。
2D轨道图
3D轨道图
轨道高度分析图
轨道倾角分析图
轨道综合分析图
查看轨道综合分析图